Location: *
(17.3280°S, 114.7300°W)
Time: 07:43:23
(UTC+00:00)

SPELTRA - Pass Details

Date: 05 August 2020
Orbit: 561 x 26573 km, 7.7° (Epoch: 20 September)

Event Time Altitude Azimuth Distance (km) Brightness Sun altitude
Exits shadow 13:29:43 - 292° (WNW) 2,706 5.4 -8.4°
Reaches altitude 10° 13:31:30 10° 306° (NW) 1,932 4.7 -8.0°
Maximum altitude 13:34:14 20° 358° (N) 1,313 4.4 -7.4°
Drops below altitude 10° 13:37:12 10° 50° (NE) 2,108 6.5 -6.7°
Sets 13:40:49 0° 68° (ENE) 3,778 9.2 -5.9°
